Theta_e
315 315 316 318 317 316 316 315 314 313 315 315 313 314 315 313 309 306 302 298 297 297 296 296 296 296 296 296 296 296 296 296 296 296 297 297 298 297 297 297 297 296
315 315 317 317 316 316 315 313 313 313 315 315 313 313 314 311 306 302 299 297 296 296 296 295 296 296 296 296 296 296 296 296 296 297 297 298 298 297 297 296 296 295
316 316 317 316 315 315 314 312 313 314 315 314 313 313 312 308 303 299 297 296 296 295 295 295 295 295 295 295 296 296 296 296 296 296 297 297 296 296 296 295 295 294
317 316 316 315 315 314 312 312 314 314 314 314 313 313 310 304 300 298 296 296 295 295 295 295 295 295 295 295 295 295 295 295 295 295 295 296 295 295 295 294 294 293
316 315 313 314 314 313 312 313 314 312 313 314 313 312 308 302 298 297 296 296 295 295 295 295 295 295 295 295 295 294 294 294 293 293 294 295 295 295 294 293 293 292
315 313 312 313 314 313 312 313 313 311 311 313 312 311 307 301 298 297 296 296 295 294 294 294 294 294 294 294 294 294 293 293 293 293 293 293 294 294 293 293 292 292
314 314 313 312 312 311 311 313 312 311 311 312 312 310 306 300 297 296 296 295 295 294 294 294 294 294 294 294 293 293 293 292 292 292 293 293 293 293 292 292 292 291
312 314 313 312 310 310 311 313 312 311 311 311 311 309 305 300 297 296 295 295 294 294 294 294 294 294 294 294 293 292 292 292 292 292 292 292 292 291 291 291 291 291
311 313 313 312 311 310 311 312 312 311 311 311 310 308 304 299 296 295 295 294 294 294 294 293 293 293 293 293 292 292 292 292 292 292 292 291 291 291 291 291 291 290
311 312 313 312 311 310 310 311 311 310 310 310 309 307 303 298 295 295 295 294 294 294 293 293 293 293 293 292 292 292 292 292 292 291 291 291 291 290 291 290 290 290
311 312 312 311 311 311 310 310 310 309 310 310 308 305 301 297 295 294 294 294 293 293 293 293 293 292 292 292 292 292 292 292 291 291 291 291 291 291 291 290 290 289
311 311 310 310 311 311 310 310 310 309 310 310 307 304 300 296 294 294 294 294 293 293 293 293 292 292 292 292 292 292 292 292 291 291 291 291 292 292 291 291 290 289
310 310 309 309 310 311 310 310 309 309 310 309 307 304 300 296 294 294 294 293 293 293 293 292 292 292 292 292 292 292 291 291 292 292 292 292 292 292 292 292 292 290
309 309 308 308 308 310 310 310 309 309 309 309 307 304 300 296 294 293 294 293 293 293 292 292 292 292 292 292 292 292 291 292 292 292 292 292 292 291 292 294 294 291
307 307 308 308 308 308 310 310 309 309 309 309 307 304 300 296 293 293 293 293 293 293 292 292 292 292 292 292 292 292 292 292 292 291 292 293 292 292 293 294 294 293
307 306 306 307 307 307 308 310 310 309 309 308 306 303 300 296 293 293 293 293 293 293 292 292 292 292 292 292 292 292 292 292 291 291 293 294 293 292 292 293 294 294
306 306 306 306 306 307 308 309 309 309 308 307 305 303 299 295 293 293 293 293 292 292 292 292 292 292 292 292 292 292 292 291 290 292 294 295 294 292 291 292 294 294
306 306 305 305 305 306 307 308 308 308 307 306 304 302 298 295 293 292 293 292 292 292 292 292 292 291 292 292 292 292 292 290 290 292 295 295 294 291 289 290 292 293
305 305 305 305 305 305 306 307 307 307 306 304 302 300 298 294 292 292 292 292 292 292 292 292 291 291 291 292 292 292 291 289 290 293 295 295 294 292 289 288 290 292
303 304 304 305 305 306 306 306 307 307 306 304 301 299 297 294 292 292 292 292 292 292 292 292 291 291 291 292 292 292 290 289 291 294 295 295 294 292 289 288 289 291
301 302 303 304 305 306 306 306 306 306 306 305 302 298 296 294 292 292 292 292 292 292 291 291 291 291 291 292 292 291 289 289 292 294 295 294 294 293 291 290 290 290
301 301 301 302 303 304 304 305 305 305 305 304 302 299 296 294 292 291 291 291 291 291 291 291 291 291 291 291 291 290 289 290 292 294 295 294 294 293 292 292 291 290
300 300 300 301 302 303 304 304 304 304 303 302 301 299 296 293 291 290 290 290 290 291 291 291 291 290 290 291 290 289 289 290 293 294 294 294 293 293 292 292 291 291
299 299 299 299 300 301 302 302 303 303 302 301 300 299 297 295 292 290 290 290 290 290 290 290 289 289 289 289 289 289 290 291 293 294 294 293 293 292 292 292 291 291
298 298 298 298 298 299 300 300 301 300 300 299 298 297 297 296 295 293 291 290 289 289 289 288 288 288 289 289 289 289 290 292 293 294 293 293 292 292 291 291 291 291
297 297 298 298 298 298 298 298 298 298 298 297 297 296 296 295 295 294 292 290 289 288 288 288 289 289 289 288 289 290 291 292 293 293 292 292 291 291 290 290 290 290
Wind_Speed
30 30 30 29 29 27 22 20 20 24 29 30 30 31 30 30 32 33 33 32 30 29 28 27 27 26 25 24 22 21 19 18 17 16 15 13 12 11 10 10 9 8
30 30 30 31 30 26 22 21 22 25 29 29 28 29 30 32 35 35 34 33 31 30 29 28 28 27 26 24 23 22 20 20 19 17 16 14 13 13 12 11 10 10
32 31 31 31 29 25 23 23 24 26 28 28 28 28 30 34 36 36 34 33 32 31 31 30 29 28 26 25 23 22 21 20 19 18 16 15 14 13 12 12 12 12
33 31 30 30 29 26 25 26 26 27 28 29 28 28 31 36 38 36 35 34 33 32 32 31 30 28 27 25 24 23 22 21 19 17 16 15 14 13 13 13 13 14
32 30 30 31 29 26 27 28 27 27 28 30 29 29 32 37 38 37 36 35 34 33 33 32 30 29 27 26 25 24 23 21 19 17 16 14 14 14 14 14 14 14
33 31 31 31 28 26 28 29 27 26 28 29 30 30 33 37 39 37 36 36 35 34 34 32 31 30 28 27 25 24 23 21 19 17 16 15 14 15 15 15 15 14
34 33 33 32 30 29 31 31 28 27 28 29 30 31 34 38 39 38 37 36 35 35 34 33 31 30 28 27 26 25 23 20 18 16 16 15 15 15 15 15 14 14
34 35 34 33 31 31 33 32 30 30 30 30 32 33 36 39 40 38 37 36 36 35 34 32 31 29 28 27 26 24 21 19 17 16 15 14 14 14 14 13 13 14
34 36 36 33 32 33 34 33 30 31 31 31 32 35 37 40 41 39 38 37 36 35 34 32 31 29 28 27 25 23 20 18 17 15 14 13 12 12 12 13 13 13
34 36 37 35 33 34 34 34 32 32 32 31 32 36 39 41 41 39 38 37 36 35 34 32 31 30 28 26 24 21 19 17 16 14 13 12 11 12 12 13 13 13
35 37 37 36 35 35 34 34 33 33 33 32 33 37 40 42 42 40 39 37 36 35 34 32 31 29 28 25 23 21 19 18 16 14 13 12 12 13 13 13 13 13
36 37 37 37 36 36 35 34 34 35 34 33 33 37 41 43 43 41 39 37 36 35 33 32 31 29 27 24 22 21 20 18 17 15 14 14 14 14 13 13 14 14
38 38 37 36 37 36 35 34 34 35 35 33 33 37 41 44 43 41 39 37 36 35 34 32 31 29 27 25 23 22 21 19 17 16 16 15 15 15 15 15 15 15
37 38 36 36 36 36 35 35 35 36 36 34 34 36 41 44 44 41 39 38 37 36 34 33 31 30 28 26 25 23 21 20 18 18 17 16 17 17 17 18 17 17
36 36 36 36 36 36 36 35 35 36 36 35 34 36 39 43 43 41 40 39 38 36 35 34 32 31 29 27 25 23 22 21 20 20 19 19 19 20 20 20 20 20
35 34 35 36 37 37 36 36 36 37 37 35 34 35 38 42 44 43 41 39 38 36 36 35 33 32 29 27 25 24 23 23 22 22 21 22 23 22 22 22 22 22
36 34 34 35 35 36 37 37 37 36 35 34 34 35 39 43 45 44 42 39 38 37 36 35 34 32 29 27 26 26 25 25 25 24 24 25 25 24 24 24 23 24
36 35 35 34 33 34 36 37 35 34 34 34 35 36 39 43 45 44 42 40 39 38 37 35 33 31 29 28 27 27 27 28 27 26 26 27 26 26 26 26 26 25
35 36 35 34 32 31 33 35 35 34 33 33 33 35 38 42 44 44 42 41 40 38 37 36 33 31 30 29 29 29 29 30 30 29 29 28 27 27 28 29 29 29
34 35 35 34 33 31 31 32 34 34 32 31 31 34 37 41 44 44 43 42 40 39 38 36 33 31 30 30 30 30 31 31 32 32 31 30 29 29 31 33 33 33
32 33 33 33 34 34 32 32 33 33 31 30 31 33 36 39 42 43 43 42 40 39 37 36 34 32 32 32 32 31 32 34 35 35 34 33 32 32 33 35 36 37
28 30 31 32 33 34 34 33 33 32 32 31 31 33 35 38 40 42 42 42 41 39 38 37 35 34 34 33 32 32 34 36 37 38 38 36 34 33 34 36 38 39
23 25 27 29 31 32 32 33 32 32 32 32 32 34 35 36 39 40 41 42 41 40 39 38 36 36 34 33 32 34 37 38 39 41 41 39 36 35 35 36 38 39
19 21 23 25 27 28 29 30 30 30 30 30 31 32 32 33 35 36 38 39 39 39 39 38 36 34 32 32 34 36 38 38 39 41 41 40 38 37 37 37 38 39
14 16 18 19 21 23 25 26 26 26 26 26 26 27 27 27 29 30 32 34 36 36 36 34 33 32 32 34 36 37 38 40 41 41 40 39 38 38 38 38 39 41
10 11 12 13 14 16 18 20 20 20 19 19 18 18 18 18 19 21 24 26 29 31 31 32 32 33 34 36 37 39 40 40 38 37 37 37 38 39 40 41 42 43
Wind_Direction
221 223 227 227 221 220 230 239 239 229 221 221 220 216 220 219 209 200 195 194 195 197 198 199 198 197 196 195 195 193 192 192 192 191 191 195 198 204 209 212 216 225
220 224 226 218 215 225 239 242 238 230 223 225 224 219 223 220 207 198 196 196 197 199 200 200 200 199 198 197 196 195 194 195 196 195 197 201 205 208 211 214 221 227
221 223 221 216 221 235 242 237 230 226 224 225 225 223 223 217 205 199 199 199 200 201 201 201 201 200 199 200 199 197 199 200 200 200 201 204 208 211 214 218 224 229
220 220 220 224 231 236 236 231 223 222 225 223 223 225 222 213 205 201 201 202 203 202 202 202 202 202 200 201 201 200 202 203 203 203 205 208 210 214 220 224 228 232
220 223 226 229 229 227 229 228 221 222 227 225 223 223 219 212 207 205 205 205 204 204 204 203 203 203 202 202 202 204 205 204 203 204 207 212 215 219 223 228 232 235
221 226 228 229 229 227 228 227 224 226 227 226 226 223 219 214 210 208 208 208 206 205 205 205 204 204 204 203 204 206 207 206 205 206 209 214 220 224 226 230 235 239
222 225 225 227 232 231 229 227 225 226 226 226 227 225 220 217 213 212 212 211 209 208 207 207 206 206 206 206 206 208 208 207 208 211 214 218 223 228 232 236 240 244
223 224 223 225 231 230 230 228 222 223 227 228 227 226 222 219 216 215 214 213 212 211 210 208 208 208 209 209 209 209 209 208 210 214 220 225 229 234 240 245 249 251
223 223 223 227 231 229 229 230 223 221 228 231 228 226 223 220 218 217 217 216 214 214 212 210 210 210 211 212 211 211 211 212 215 219 225 230 236 242 250 255 258 258
222 222 225 229 231 228 227 229 226 224 228 231 228 227 224 220 218 218 218 217 216 216 214 212 212 212 212 213 213 213 214 215 218 223 229 234 239 247 255 260 263 265
224 224 227 230 229 227 227 229 228 226 229 231 229 227 224 221 219 218 219 219 218 218 217 215 215 214 214 214 214 215 216 217 218 222 229 236 242 249 256 262 266 268
227 227 230 230 228 227 227 229 229 228 231 232 230 228 225 221 219 220 220 220 220 220 219 218 217 216 216 216 216 217 218 218 219 222 228 236 244 251 257 262 265 267
229 230 232 231 230 229 229 230 231 232 233 234 231 229 226 222 220 221 221 221 221 221 220 219 218 217 216 216 217 219 219 220 223 227 232 239 245 250 255 259 261 264
231 232 234 233 232 232 232 231 232 233 235 235 232 229 227 224 222 222 222 223 222 222 221 221 219 218 217 217 218 219 221 223 226 230 236 242 247 249 255 261 262 261
234 233 233 234 234 234 234 234 233 234 236 235 233 230 227 225 223 223 223 224 223 223 222 221 220 219 219 218 219 221 224 227 229 232 239 246 248 250 256 263 267 265
237 235 232 233 234 234 234 234 235 236 237 235 233 230 227 225 223 223 224 224 225 225 224 223 222 220 219 219 221 224 227 230 231 234 243 250 251 251 256 264 271 273
238 236 234 233 233 233 233 234 236 238 238 235 232 229 226 225 224 224 225 225 226 227 227 226 224 221 220 221 224 227 229 230 231 238 250 257 254 251 255 263 272 279
238 236 235 235 234 232 232 234 237 238 236 235 232 229 226 225 225 226 226 226 227 228 228 228 226 224 223 224 227 231 233 231 234 244 258 264 258 251 252 259 268 277
238 236 235 236 236 235 232 233 236 237 236 235 234 231 228 227 226 227 228 229 229 230 230 229 227 225 225 228 232 235 235 233 238 251 264 267 261 254 251 255 263 272
239 237 236 236 236 236 234 233 235 237 236 234 233 232 230 229 228 228 229 230 231 232 233 232 230 228 229 232 237 238 237 237 244 257 268 270 265 257 252 254 261 269
239 238 237 236 236 236 235 235 237 238 237 235 233 232 231 230 231 231 231 232 232 234 235 235 233 232 232 236 239 240 239 241 250 262 271 272 269 264 259 258 262 266
242 240 238 237 237 238 237 236 237 238 238 237 235 234 232 231 232 233 233 233 234 235 236 237 236 234 235 239 241 241 242 246 256 268 273 272 271 270 269 267 266 266
241 241 239 237 237 239 240 241 241 240 240 239 237 236 235 233 232 233 234 234 234 235 237 239 238 237 239 241 242 243 246 252 264 273 274 273 273 273 274 274 271 269
236 238 239 238 238 239 241 244 245 245 244 243 242 242 241 239 237 236 236 236 236 237 239 239 240 240 242 244 245 247 252 261 272 276 273 272 274 275 277 279 278 275
227 232 235 236 237 238 240 245 248 249 249 247 247 248 248 245 242 241 241 240 240 240 241 241 243 244 244 245 247 251 258 267 274 274 270 273 277 279 281 283 282 280
207 215 222 225 231 235 239 245 248 250 250 249 248 248 246 243 241 241 242 243 242 243 244 246 247 247 247 247 251 258 264 269 271 270 271 276 280 282 284 285 284 283